sat.trackr.live / text

‹ back to catalog

KUIPER-00454

NORAD 68948 · 2026-098AF

PAYLOAD ACTIVE UNKNOWN

§ Identity

Operator
Country
US
Launch date
2026-04-30
Launch site
FRGUI
Launch vehicle
Mass (kg)
RCS (m²)

External: N2YO · Heavens-Above · Gunter

§ Orbital elements

Epoch: 2026-05-24T10:57:08.218368Z

Period
94.17 min
Inclination
51.8727°
Eccentricity
0.0016321
Mean motion
15.29070351 rev/d
Perigee alt
467.4 km
Apogee alt
489.8 km
Semi-major
6,856.7 km
B*
-1.5546e-3
RAAN
182.6925°
Arg perigee
60.7214°
Mean anomaly
299.5399°
Rev number
369

§ Raw data

KUIPER-004541 68948U 26098AF  26144.45634512 -.00044794  00000+0 -15546-2 0  99992 68948  51.8727 182.6925 0016321  60.7214 299.5399 15.29070351  3690

JSON: /api/v1/satellites/68948 · /tle

For live sub-satellite position, see the globe view (requires WebGL).

§ Visibility from observer

Set your observer location to see the next 7 days of passes ≥ 10°. The values pass through the URL so the page stays shareable.

No JS? Fill the form by hand. The geolocation button needs JavaScript.